Været på Ålesund Lufhavn, Vigra (ENAL)

 

Time for time, neste 48 timer:

Detaljert varsel fra yr.no - 48 timer

Vindprognose for Breisundet:

Vindvarsel

Upper Winds 3000 fot akkurat nå:

ENAL akkurat nå:

  • METAR: 171320Z VRB02KT 9999 BKN055 11/07 Q1002
  • TAF: TAF 171100Z 1712/1721 12008KT 9999 FEW040 BKN080